| time (UTC) | temp F | wind direction | speed MPH | gust MPH | rain 1hr in | rain 24hr in | rain mn in | humidity % | barometer mb |
| 20260904234403 | 75 | 260 | 0.0 | 6.0 | 0.00 | 0.00 | 0.00 | 1012.9 | |
| 20260904233903 | 76 | 251 | 1.0 | 6.0 | 0.00 | 0.00 | 0.00 | 1012.2 | |
| 20260904233404 | 76 | 281 | 2.0 | 6.0 | 0.00 | 0.00 | 0.00 | 1012.9 | |
| 20260904232903 | 76 | 261 | 2.0 | 6.0 | 0.00 | 0.00 | 0.00 | 1012.6 | |
| 20260904232403 | 76 | 269 | 0.0 | 3.0 | 0.00 | 0.00 | 0.00 | 1012.2 | |
| 20260904231903 | 76 | 246 | 1.0 | 5.0 | 0.00 | 0.00 | 0.00 | 1012.6 | |
| 20260904231403 | 76 | 264 | 2.0 | 5.0 | 0.00 | 0.00 | 0.00 | 1012.6 | |
| 20260904225903 | 77 | 205 | 2.0 | 8.0 | 0.00 | 0.00 | 0.00 | 1013.2 | |
| 20260904225424 | 79 | 252 | 1.0 | 8.0 | 0.00 | 0.00 | 0.00 | 1013.2 | |
| 20260904224903 | 80 | 255 | 1.0 | 6.0 | 0.00 | 0.00 | 0.00 | 1012.9 | |
| 20260904222403 | 80 | 267 | 0.0 | 6.0 | 0.00 | 0.00 | 0.00 | 1013.6 | |
| 20260904221902 | 79 | 206 | 1.0 | 6.0 | 0.00 | 0.00 | 0.00 | 1014.3 | |
| 20260904221425 | 78 | 177 | 1.0 | 7.0 | 0.00 | 0.00 | 0.00 | 1013.9 | |
| 20260904220925 | 78 | 274 | 2.0 | 7.0 | 0.00 | 0.00 | 0.00 | 1013.9 | |
| 20260904220403 | 76 | 208 | 1.0 | 5.0 | 0.00 | 0.00 | 0.00 | 1013.2 | |
| 20260904215903 | 75 | 182 | 2.0 | 5.0 | 0.00 | 0.00 | 0.00 | 1012.6 | |
| 20260904215403 | 74 | 192 | 2.0 | 4.0 | 0.00 | 0.00 | 0.00 | 1012.9 | |
| 20260904214903 | 73 | 190 | 2.0 | 5.0 | 0.00 | 0.00 | 0.00 | 1013.2 | |
| 20260904214402 | 72 | 204 | 1.0 | 5.0 | 0.00 | 0.00 | 0.00 | 1013.2 | |
| 20260904213903 | 72 | 187 | 0.0 | 5.0 | 0.00 | 0.00 | 0.00 | 1013.2 | |
| 20260904213403 | 72 | 186 | 0.0 | 6.0 | 0.00 | 0.00 | 0.00 | 1013.9 | |
| 20260904212404 | 72 | 174 | 0.0 | 6.0 | 0.00 | 0.00 | 0.00 | 1014.3 | |
| 20260904210924 | 72 | 122 | 0.0 | 6.0 | 0.00 | 0.00 | 0.00 | 1014.3 | |
| 20260904210403 | 72 | 184 | 0.0 | 6.0 | 0.00 | 0.00 | 0.00 | 1013.9 | |
| 20260904205903 | 71 | 163 | 1.0 | 6.0 | 0.00 | 0.00 | 0.00 | 1013.6 | |
| 20260904205403 | 71 | 182 | 0.0 | 6.0 | 0.00 | 0.00 | 0.00 | 1013.6 | |
| 20260904204903 | 71 | 186 | 0.0 | 6.0 | 0.00 | 0.00 | 0.00 | 1014.3 | |
| 20260904204424 | 71 | 172 | 0.0 | 5.0 | 0.00 | 0.00 | 0.00 | 1013.9 | |
| 20260904203903 | 70 | 150 | 3.0 | 5.0 | 0.00 | 0.00 | 0.00 | 1014.3 | |
| 20260904203403 | 70 | 176 | 0.0 | 5.0 | 0.00 | 0.00 | 0.00 | 1014.3 | |
| 20260904202903 | 70 | 151 | 4.0 | 6.0 | 0.00 | 0.00 | 0.00 | 1014.6 | |
| 20260904202424 | 70 | 180 | 0.0 | 15.0 | 0.00 | 0.00 | 0.00 | 1014.9 | |
| 20260904201903 | 70 | 349 | 4.0 | 19.0 | 0.00 | 0.00 | 0.00 | 1015.6 | |
| 20260904200403 | 79 | 315 | 10.0 | 24.0 | 0.00 | 0.00 | 0.00 | 1017.0 | |
| 20260904195903 | 84 | 338 | 6.0 | 22.0 | 0.00 | 0.00 | 0.00 | 1016.6 | |
| 20260904195424 | 86 | 56 | 11.0 | 22.0 | 0.00 | 0.00 | 0.00 | 1014.6 | |
| 20260904194903 | 94 | 4 | 7.0 | 21.0 | 0.00 | 0.00 | 0.00 | 1014.6 | |
| 20260904194424 | 96 | 292 | 9.0 | 21.0 | 0.00 | 0.00 | 0.00 | 1013.9 | |
| 20260904193903 | 96 | 291 | 5.0 | 19.0 | 0.00 | 0.00 | 0.00 | 1014.3 | |
| 20260904193403 | 96 | 286 | 10.0 | 19.0 | 0.00 | 0.00 | 0.00 | 1013.9 | |
| 20260904192925 | 96 | 285 | 6.0 | 13.0 | 0.00 | 0.00 | 0.00 | 1013.9 | |
| 20260904192424 | 96 | 299 | 4.0 | 10.0 | 0.00 | 0.00 | 0.00 | 1013.6 | |
| 20260904191903 | 96 | 277 | 4.0 | 10.0 | 0.00 | 0.00 | 0.00 | 1013.6 | |
| 20260904191403 | 96 | 193 | 3.0 | 7.0 | 0.00 | 0.00 | 0.00 | 1013.9 | |
| 20260904190903 | 96 | 204 | 3.0 | 11.0 | 0.00 | 0.00 | 0.00 | 1013.2 | |
| 20260904190403 | 96 | 216 | 3.0 | 11.0 | 0.00 | 0.00 | 0.00 | 1013.9 | |
| 20260904185903 | 96 | 268 | 3.0 | 8.0 | 0.00 | 0.00 | 0.00 | 1013.6 | |
| 20260904185403 | 96 | 292 | 3.0 | 14.0 | 0.00 | 0.00 | 0.00 | 1014.3 | |
| 20260904184903 | 95 | 289 | 4.0 | 14.0 | 0.00 | 0.00 | 0.00 | 1013.9 | |
| 20260904184403 | 95 | 312 | 4.0 | 11.0 | 0.00 | 0.00 | 0.00 | 1014.3 | |
| 20260904183903 | 95 | 302 | 4.0 | 14.0 | 0.00 | 0.00 | 0.00 | 1014.3 | |
| 20260904183403 | 95 | 286 | 7.0 | 14.0 | 0.00 | 0.00 | 0.00 | 1014.6 | |
| 20260904182903 | 95 | 276 | 5.0 | 11.0 | 0.00 | 0.00 | 0.00 | 1014.9 | |
| 20260904182403 | 95 | 303 | 5.0 | 14.0 | 0.00 | 0.00 | 0.00 | 1014.6 | |
| 20260904181903 | 94 | 288 | 8.0 | 14.0 | 0.00 | 0.00 | 0.00 | 1014.6 | |
| 20260904181403 | 94 | 285 | 5.0 | 13.0 | 0.00 | 0.00 | 0.00 | 1014.6 | |
| 20260904180903 | 94 | 301 | 3.0 | 12.0 | 0.00 | 0.00 | 0.00 | 1014.3 | |
| 20260904180403 | 94 | 299 | 5.0 | 14.0 | 0.00 | 0.00 | 0.00 | 1014.3 | |
| 20260904175903 | 94 | 301 | 5.0 | 14.0 | 0.00 | 0.00 | 0.00 | 1014.9 | |
| 20260904175424 | 94 | 291 | 4.0 | 12.0 | 0.00 | 0.00 | 0.00 | 1014.6 | |
| 20260904174903 | 94 | 306 | 5.0 | 12.0 | 0.00 | 0.00 | 0.00 | 1015.3 | |
| 20260904174403 | 93 | 310 | 5.0 | 14.0 | 0.00 | 0.00 | 0.00 | 1014.9 | |
| 20260904172903 | 93 | 268 | 6.0 | 13.0 | 0.00 | 0.00 | 0.00 | 1015.6 | |
| 20260904172402 | 93 | 283 | 7.0 | 15.0 | 0.00 | 0.00 | 0.00 | 1015.3 | |
| 20260904171903 | 93 | 294 | 5.0 | 17.0 | 0.00 | 0.00 | 0.00 | 1014.9 | |
| 20260904171402 | 94 | 293 | 8.0 | 17.0 | 0.00 | 0.00 | 0.00 | 1015.3 | |
| 20260904170903 | 93 | 276 | 5.0 | 14.0 | 0.00 | 0.00 | 0.00 | 1015.3 | |
| 20260904170424 | 92 | 270 | 7.0 | 14.0 | 0.00 | 0.00 | 0.00 | 1015.6 | |
| 20260904165903 | 93 | 294 | 5.0 | 15.0 | 0.00 | 0.00 | 0.00 | 1016.0 | |
| 20260904165424 | 92 | 316 | 4.0 | 16.0 | 0.00 | 0.00 | 0.00 | 1015.6 | |
| 20260904164903 | 92 | 304 | 8.0 | 17.0 | 0.00 | 0.00 | 0.00 | 1016.0 | |
| 20260904164403 | 92 | 313 | 7.0 | 17.0 | 0.00 | 0.00 | 0.00 | 1016.0 | |
| 20260904163903 | 92 | 285 | 9.0 | 13.0 | 0.00 | 0.00 | 0.00 | 1015.6 | |
| 20260904163403 | 92 | 315 | 6.0 | 14.0 | 0.00 | 0.00 | 0.00 | 1015.6 | |
| 20260904162903 | 92 | 285 | 6.0 | 14.0 | 0.00 | 0.00 | 0.00 | 1015.6 | |
| 20260904162403 | 92 | 279 | 7.0 | 11.0 | 0.00 | 0.00 | 0.00 | 1016.0 | |
| 20260904161903 | 92 | 315 | 4.0 | 12.0 | 0.00 | 0.00 | 0.00 | 1015.6 | |
| 20260904161403 | 91 | 293 | 6.0 | 12.0 | 0.00 | 0.00 | 0.00 | 1015.3 | |
| 20260904160902 | 91 | 295 | 5.0 | 15.0 | 0.00 | 0.00 | 0.00 | 1016.0 | |
| 20260904160403 | 91 | 285 | 7.0 | 15.0 | 0.00 | 0.00 | 0.00 | 1015.3 | |
| 20260904155924 | 91 | 288 | 4.0 | 10.0 | 0.00 | 0.00 | 0.00 | 1015.3 | |
| 20260904155404 | 91 | 276 | 2.0 | 11.0 | 0.00 | 0.00 | 0.00 | 1016.0 | |
| 20260904154903 | 90 | 287 | 6.0 | 11.0 | 0.00 | 0.00 | 0.00 | 1016.0 | |
| 20260904154403 | 90 | 251 | 3.0 | 11.0 | 0.00 | 0.00 | 0.00 | 1016.0 | |
| 20260904153903 | 90 | 271 | 3.0 | 9.0 | 0.00 | 0.00 | 0.00 | 1016.0 | |
| 20260904153403 | 90 | 299 | 3.0 | 9.0 | 0.00 | 0.00 | 0.00 | 1016.0 | |
| 20260904152903 | 89 | 288 | 6.0 | 10.0 | 0.00 | 0.00 | 0.00 | 1015.6 | |
| 20260904152424 | 88 | 309 | 6.0 | 10.0 | 0.00 | 0.00 | 0.00 | 1015.6 | |
| 20260904151924 | 88 | 299 | 5.0 | 11.0 | 0.00 | 0.00 | 0.00 | 1015.6 | |
| 20260904151403 | 88 | 293 | 6.0 | 11.0 | 0.00 | 0.00 | 0.00 | 1016.0 | |
| 20260904150903 | 88 | 275 | 5.0 | 11.0 | 0.00 | 0.00 | 0.00 | 1015.6 | |
| 20260904150403 | 88 | 303 | 3.0 | 11.0 | 0.00 | 0.00 | 0.00 | 1014.9 | |
| 20260904145903 | 88 | 284 | 3.0 | 9.0 | 0.00 | 0.00 | 0.00 | 1015.6 | |
| 20260904145402 | 87 | 292 | 4.0 | 12.0 | 0.00 | 0.00 | 0.00 | 1015.6 | |
| 20260904144903 | 86 | 286 | 6.0 | 15.0 | 0.00 | 0.00 | 0.00 | 1016.3 | |
| 20260904144403 | 86 | 280 | 5.0 | 15.0 | 0.00 | 0.00 | 0.00 | 1016.0 | |
| 20260904143903 | 86 | 283 | 5.0 | 10.0 | 0.00 | 0.00 | 0.00 | 1016.0 | |
| 20260904143424 | 86 | 288 | 5.0 | 10.0 | 0.00 | 0.00 | 0.00 | 1016.0 | |
| 20260904142902 | 86 | 256 | 4.0 | 10.0 | 0.00 | 0.00 | 0.00 | 1015.6 | |
| 20260904142403 | 86 | 282 | 4.0 | 9.0 | 0.00 | 0.00 | 0.00 | 1014.9 | |
| 20260904141902 | 85 | 280 | 4.0 | 9.0 | 0.00 | 0.00 | 0.00 | 1014.9 | |
| 20260904141403 | 85 | 267 | 5.0 | 8.0 | 0.00 | 0.00 | 0.00 | 1015.3 | |
| 20260904140924 | 85 | 265 | 4.0 | 12.0 | 0.00 | 0.00 | 0.00 | 1015.6 | |
| 20260904140403 | 85 | 271 | 5.0 | 12.0 | 0.00 | 0.00 | 0.00 | 1015.6 | |
| 20260904135903 | 85 | 274 | 4.0 | 8.0 | 0.00 | 0.00 | 0.00 | 1015.3 | |
| 20260904135403 | 84 | 284 | 3.0 | 7.0 | 0.00 | 0.00 | 0.00 | 1015.6 | |
| 20260904134903 | 84 | 257 | 2.0 | 5.0 | 0.00 | 0.00 | 0.00 | 1016.0 | |
| 20260904134403 | 84 | 241 | 1.0 | 7.0 | 0.00 | 0.00 | 0.00 | 1015.6 | |
| 20260904133903 | 84 | 214 | 2.0 | 7.0 | 0.00 | 0.00 | 0.00 | 1016.0 | |
| 20260904133403 | 84 | 195 | 1.0 | 5.0 | 0.00 | 0.00 | 0.00 | 1015.3 | |
| 20260904132903 | 84 | 194 | 0.0 | 4.0 | 0.00 | 0.00 | 0.00 | 1015.3 | |
| 20260904132402 | 83 | 110 | 0.0 | 6.0 | 0.00 | 0.00 | 0.00 | 1015.3 | |
| 20260904130903 | 83 | 216 | 1.0 | 3.0 | 0.00 | 0.00 | 0.00 | 1015.6 | |
| 20260904130424 | 82 | 195 | 0.0 | 4.0 | 0.00 | 0.00 | 0.00 | 1015.6 | |
| 20260904125903 | 82 | 232 | 0.0 | 4.0 | 0.00 | 0.00 | 0.00 | 1015.3 | |
| 20260904125403 | 82 | 24 | 0.0 | 6.0 | 0.00 | 0.00 | 0.00 | 1015.3 | |
| 20260904124903 | 81 | 224 | 0.0 | 6.0 | 0.00 | 0.00 | 0.00 | 1015.6 | |
| 20260904124403 | 81 | 225 | 0.0 | 6.0 | 0.00 | 0.00 | 0.00 | 1015.6 | |
| 20260904123903 | 81 | 202 | 0.0 | 6.0 | 0.00 | 0.00 | 0.00 | 1015.3 | |
| 20260904123403 | 81 | 206 | 0.0 | 6.0 | 0.00 | 0.00 | 0.00 | 1016.0 | |
| 20260904122903 | 81 | 209 | 0.0 | 3.0 | 0.00 | 0.00 | 0.00 | 1014.9 | |
| 20260904122403 | 81 | 234 | 0.0 | 3.0 | 0.00 | 0.00 | 0.00 | 1015.6 | |
| 20260904121903 | 80 | 200 | 0.0 | 4.0 | 0.00 | 0.00 | 0.00 | 1014.9 | |
| 20260904121403 | 80 | 156 | 0.0 | 6.0 | 0.00 | 0.00 | 0.00 | 1015.3 | |
| 20260904120924 | 80 | 225 | 0.0 | 6.0 | 0.00 | 0.00 | 0.00 | 1015.3 | |
| 20260904120403 | 80 | 208 | 0.0 | 6.0 | 0.00 | 0.00 | 0.00 | 1014.9 | |
| 20260904115924 | 79 | 213 | 0.0 | 6.0 | 0.00 | 0.00 | 0.00 | 1014.9 | |
| 20260904115403 | 79 | 208 | 0.0 | 6.0 | 0.00 | 0.00 | 0.00 | 1014.9 | |
| 20260904114903 | 79 | 223 | 0.0 | 6.0 | 0.00 | 0.00 | 0.00 | 1015.3 | |
| 20260904114403 | 79 | 180 | 0.0 | 6.0 | 0.00 | 0.00 | 0.00 | 1014.6 | |
| 20260904113903 | 79 | 206 | 0.0 | 6.0 | 0.00 | 0.00 | 0.00 | 1014.6 | |
| 20260904113402 | 78 | 260 | 0.0 | 6.0 | 0.00 | 0.00 | 0.00 | 1014.6 | |
| 20260904112903 | 78 | 190 | 0.0 | 6.0 | 0.00 | 0.00 | 0.00 | 1014.6 | |
| 20260904112402 | 78 | 292 | 0.0 | 5.0 | 0.00 | 0.00 | 0.00 | 1014.6 | |
| 20260904111924 | 78 | 247 | 0.0 | 6.0 | 0.00 | 0.00 | 0.00 | 1014.6 | |
| 20260904111403 | 78 | 247 | 0.0 | 6.0 | 0.00 | 0.00 | 0.00 | 1014.9 | |
| 20260904110903 | 78 | 257 | 0.0 | 6.0 | 0.00 | 0.00 | 0.00 | 1014.9 | |
| 20260904110403 | 78 | 206 | 0.0 | 3.0 | 0.00 | 0.00 | 0.00 | 1014.3 | |
| 20260904105924 | 78 | 208 | 0.0 | 6.0 | 0.00 | 0.00 | 0.00 | 1013.9 | |
| 20260904105403 | 78 | 241 | 0.0 | 6.0 | 0.00 | 0.00 | 0.00 | 1013.9 | |
| 20260904104924 | 78 | 248 | 0.0 | 0.0 | 0.00 | 0.00 | 0.00 | 1014.6 | |
| 20260904104403 | 78 | 225 | 0.0 | 0.0 | 0.00 | 0.00 | 0.00 | 1013.9 | |
| 20260904103903 | 78 | 248 | 0.0 | 6.0 | 0.00 | 0.00 | 0.00 | 1014.3 | |
| 20260904103403 | 78 | 225 | 0.0 | 6.0 | 0.00 | 0.00 | 0.00 | 1014.3 | |
| 20260904102903 | 78 | 241 | 0.0 | 4.0 | 0.00 | 0.00 | 0.00 | 1013.9 | |
| 20260904102424 | 78 | 293 | 0.0 | 6.0 | 0.00 | 0.00 | 0.00 | 1013.9 | |
| 20260904101903 | 78 | 184 | 0.0 | 6.0 | 0.00 | 0.00 | 0.00 | 1014.3 | |
| 20260904101403 | 78 | 251 | 0.0 | 6.0 | 0.00 | 0.00 | 0.00 | 1014.3 | |
| 20260904100903 | 78 | 209 | 0.0 | 2.0 | 0.00 | 0.00 | 0.00 | 1014.3 | |
| 20260904100403 | 78 | 204 | 0.0 | 6.0 | 0.00 | 0.00 | 0.00 | 1014.6 | |
| 20260904095903 | 78 | 202 | 0.0 | 6.0 | 0.00 | 0.00 | 0.00 | 1013.9 | |
| 20260904095424 | 78 | 192 | 0.0 | 5.0 | 0.00 | 0.00 | 0.00 | 1013.9 | |
| 20260904094924 | 77 | 201 | 0.0 | 6.0 | 0.00 | 0.00 | 0.00 | 1013.9 | |
| 20260904094403 | 77 | 201 | 0.0 | 6.0 | 0.00 | 0.00 | 0.00 | 1013.9 | |
| 20260904093902 | 77 | 191 | 0.0 | 6.0 | 0.00 | 0.00 | 0.00 | 1014.3 | |
| 20260904093403 | 77 | 181 | 0.0 | 6.0 | 0.00 | 0.00 | 0.00 | 1014.6 | |
| 20260904092903 | 76 | 196 | 0.0 | 6.0 | 0.00 | 0.00 | 0.00 | 1013.9 | |
| 20260904091403 | 77 | 158 | 0.0 | 0.0 | 0.00 | 0.00 | 0.00 | 1013.9 | |
| 20260904090903 | 77 | 45 | 0.0 | 0.0 | 0.00 | 0.00 | 0.00 | 1013.9 | |
| 20260904090404 | 77 | 68 | 0.0 | 0.0 | 0.00 | 0.00 | 0.00 | 1014.6 | |
| 20260904085924 | 77 | 180 | 0.0 | 0.0 | 0.00 | 0.00 | 0.00 | 1014.3 | |
| 20260904084403 | 78 | 158 | 0.0 | 3.0 | 0.00 | 0.00 | 0.00 | 1013.9 | |
| 20260904083903 | 78 | 180 | 0.0 | 0.0 | 0.00 | 0.00 | 0.00 | 1014.3 | |
| 20260904083403 | 78 | 45 | 0.0 | 0.0 | 0.00 | 0.00 | 0.00 | 1014.6 | |
| 20260904082902 | 79 | 90 | 0.0 | 0.0 | 0.00 | 0.00 | 0.00 | 1013.9 | |
| 20260904082403 | 79 | 203 | 0.0 | 0.0 | 0.00 | 0.00 | 0.00 | 1013.9 | |
| 20260904081903 | 80 | 225 | 0.0 | 6.0 | 0.00 | 0.00 | 0.00 | 1014.3 | |
| 20260904081403 | 80 | 291 | 0.0 | 6.0 | 0.00 | 0.00 | 0.00 | 1014.3 | |
| 20260904080903 | 80 | 285 | 0.0 | 5.0 | 0.00 | 0.00 | 0.00 | 1014.6 | |
| 20260904080402 | 80 | 315 | 0.0 | 6.0 | 0.00 | 0.00 | 0.00 | 1014.6 | |
| 20260904075903 | 80 | 174 | 0.0 | 6.0 | 0.00 | 0.00 | 0.00 | 1014.6 | |
| 20260904075403 | 80 | 239 | 0.0 | 6.0 | 0.00 | 0.00 | 0.00 | 1014.6 | |
| 20260904074903 | 80 | 286 | 1.0 | 6.0 | 0.00 | 0.00 | 0.00 | 1013.9 | |
| 20260904074424 | 80 | 184 | 0.0 | 2.0 | 0.00 | 0.00 | 0.00 | 1013.9 | |
| 20260904073903 | 80 | 208 | 0.0 | 1.0 | 0.00 | 0.00 | 0.00 | 1014.3 | |
| 20260904073403 | 80 | 338 | 0.0 | 6.0 | 0.00 | 0.00 | 0.00 | 1013.9 | |
| 20260904072924 | 80 | 202 | 0.0 | 6.0 | 0.00 | 0.00 | 0.00 | 1014.3 | |
| 20260904072424 | 80 | 224 | 0.0 | 6.0 | 0.00 | 0.00 | 0.00 | 1014.9 | |
| 20260904071903 | 79 | 248 | 0.0 | 6.0 | 0.00 | 0.00 | 0.00 | 1014.9 | |
| 20260904071402 | 79 | 293 | 0.0 | 3.0 | 0.00 | 0.00 | 0.00 | 1014.9 | |
| 20260904070903 | 79 | 223 | 0.0 | 3.0 | 0.00 | 0.00 | 0.00 | 1014.6 | |
| 20260904070402 | 79 | 225 | 0.0 | 0.0 | 0.00 | 0.00 | 0.00 | 1014.3 | |
| 20260904065924 | 78 | 203 | 0.0 | 0.0 | 0.00 | 0.00 | 0.00 | 1014.3 | |
| 20260904065445 | 78 | 225 | 0.0 | 0.0 | 0.00 | 0.00 | 0.00 | 1014.3 | |
| 20260904064903 | 78 | 270 | 0.0 | 0.0 | 0.00 | 0.00 | 0.00 | 1014.6 | |
| 20260904064403 | 78 | 225 | 0.0 | 6.0 | 0.00 | 0.00 | 0.00 | 1014.6 | |
| 20260904063903 | 78 | 180 | 0.0 | 6.0 | 0.00 | 0.00 | 0.00 | 1014.6 | |
| 20260904063403 | 78 | 203 | 0.0 | 0.0 | 0.00 | 0.00 | 0.00 | 1014.6 | |
| 20260904062903 | 78 | 203 | 0.0 | 0.0 | 0.00 | 0.00 | 0.00 | 1014.6 | |
| 20260904062424 | 78 | 315 | 0.0 | 0.0 | 0.00 | 0.00 | 0.00 | 1014.6 | |
| 20260904061903 | 79 | 203 | 0.0 | 0.0 | 0.00 | 0.00 | 0.00 | 1014.9 | |
| 20260904061403 | 79 | 203 | 0.0 | 0.0 | 0.00 | 0.00 | 0.00 | 1014.9 | |
| 20260904060903 | 79 | 203 | 0.0 | 0.0 | 0.00 | 0.00 | 0.00 | 1014.9 | |
| 20260904060403 | 79 | 338 | 0.0 | 0.0 | 0.00 | 0.00 | 0.00 | 1015.6 | |
| 20260904055903 | 79 | 338 | 0.0 | 0.0 | 0.00 | 0.00 | 0.00 | 1015.3 | |
| 20260904055424 | 79 | 338 | 0.0 | 6.0 | 0.00 | 0.00 | 0.00 | 1015.6 | |
| 20260904054903 | 79 | 180 | 0.0 | 6.0 | 0.00 | 0.00 | 0.00 | 1015.3 | |
| 20260904054403 | 79 | 158 | 0.0 | 0.0 | 0.00 | 0.00 | 0.00 | 1015.3 | |
| 20260904053902 | 79 | 180 | 0.0 | 6.0 | 0.00 | 0.00 | 0.00 | 1015.6 | |
| 20260904053403 | 79 | 158 | 0.0 | 6.0 | 0.00 | 0.00 | 0.00 | 1014.9 | |
| 20260904052903 | 79 | 158 | 0.0 | 0.0 | 0.00 | 0.00 | 0.00 | 1014.9 | |
| 20260904052403 | 79 | 113 | 0.0 | 0.0 | 0.00 | 0.00 | 0.00 | 1014.9 | |
| 20260904051903 | 79 | 203 | 0.0 | 0.0 | 0.00 | 0.00 | 0.00 | 1016.0 | |
| 20260904051403 | 79 | 203 | 0.0 | 0.0 | 0.00 | 0.00 | 0.00 | 1016.0 | |
| 20260904050903 | 80 | 158 | 0.0 | 0.0 | 0.00 | 0.00 | 0.00 | 1015.3 | |
| 20260904050403 | 80 | 180 | 0.0 | 0.0 | 0.00 | 0.00 | 0.00 | 1015.3 | |
| 20260904045903 | 80 | 158 | 0.0 | 0.0 | 0.00 | 0.00 | 0.00 | 1015.3 | |
| 20260904045402 | 80 | 158 | 0.0 | 0.0 | 0.00 | 0.00 | 0.00 | 1014.9 | |
| 20260904044903 | 80 | 338 | 0.0 | 0.0 | 0.00 | 0.00 | 0.00 | 1014.9 | |
| 20260904044403 | 80 | 338 | 0.0 | 0.0 | 0.00 | 0.00 | 0.00 | 1014.9 | |
| 20260904043924 | 80 | 203 | 0.0 | 0.0 | 0.00 | 0.00 | 0.00 | 1014.9 | |
| 20260904043424 | 80 | 203 | 0.0 | 6.0 | 0.00 | 0.00 | 0.00 | 1014.9 | |
| 20260904042903 | 80 | 202 | 0.0 | 6.0 | 0.00 | 0.00 | 0.00 | 1014.9 | |
| 20260904042403 | 80 | 203 | 0.0 | 0.0 | 0.00 | 0.00 | 0.00 | 1014.9 | |
| 20260904041902 | 81 | 45 | 0.0 | 0.0 | 0.00 | 0.00 | 0.00 | 1015.3 | |
| 20260904041403 | 81 | 45 | 0.0 | 0.0 | 0.00 | 0.00 | 0.00 | 1014.9 | |
| 20260904040903 | 81 | 315 | 0.0 | 0.0 | 0.00 | 0.00 | 0.00 | 1014.9 | |
| 20260904040403 | 81 | 338 | 0.0 | 6.0 | 0.00 | 0.00 | 0.00 | 1015.6 | |
| 20260904035903 | 81 | 270 | 0.0 | 6.0 | 0.00 | 0.00 | 0.00 | 1014.9 | |
| 20260904035403 | 81 | 202 | 0.0 | 4.0 | 0.00 | 0.00 | 0.00 | 1014.6 | |
| 20260904034903 | 81 | 225 | 0.0 | 2.0 | 0.00 | 0.00 | 0.00 | 1015.3 | |
| 20260904034424 | 82 | 180 | 0.0 | 0.0 | 0.00 | 0.00 | 0.00 | 1014.9 | |
| 20260904033903 | 82 | 360 | 0.0 | 0.0 | 0.00 | 0.00 | 0.00 | 1015.3 | |
| 20260904033403 | 83 | 360 | 0.0 | 0.0 | 0.00 | 0.00 | 0.00 | 1015.3 | |
| 20260904032903 | 84 | 360 | 0.0 | 2.0 | 0.00 | 0.00 | 0.00 | 1015.3 | |
| 20260904032403 | 84 | 340 | 0.0 | 2.0 | 0.00 | 0.00 | 0.00 | 1015.3 | |
| 20260904031903 | 84 | 315 | 0.0 | 2.0 | 0.00 | 0.00 | 0.00 | 1015.6 | |
| 20260904031402 | 84 | 338 | 0.0 | 2.0 | 0.00 | 0.00 | 0.00 | 1015.6 | |
| 20260904030903 | 85 | 360 | 0.0 | 5.0 | 0.00 | 0.00 | 0.00 | 1015.6 | |
| 20260904030403 | 85 | 331 | 0.0 | 5.0 | 0.00 | 0.00 | 0.00 | 1015.6 | |
| 20260904025903 | 85 | 275 | 0.0 | 5.0 | 0.00 | 0.00 | 0.00 | 1015.3 | |
| 20260904025403 | 86 | 347 | 0.0 | 2.0 | 0.00 | 0.00 | 0.00 | 1015.6 | |
| 20260904024903 | 86 | 317 | 0.0 | 3.0 | 0.00 | 0.00 | 0.00 | 1015.6 | |
| 20260904024424 | 85 | 329 | 1.0 | 4.0 | 0.00 | 0.00 | 0.00 | 1015.6 | |
| 20260904023903 | 84 | 347 | 0.0 | 4.0 | 0.00 | 0.00 | 0.00 | 1015.6 | |
| 20260904023403 | 84 | 23 | 0.0 | 0.0 | 0.00 | 0.00 | 0.00 | 1015.3 | |
| 20260904022903 | 84 | 203 | 0.0 | 2.0 | 0.00 | 0.00 | 0.00 | 1014.9 | |
| 20260904022403 | 85 | 270 | 0.0 | 2.0 | 0.00 | 0.00 | 0.00 | 1015.3 | |
| 20260904021903 | 85 | 158 | 0.0 | 0.0 | 0.00 | 0.00 | 0.00 | 1015.3 | |
| 20260904021424 | 85 | 270 | 0.0 | 5.0 | 0.00 | 0.00 | 0.00 | 1015.3 | |
| 20260904020902 | 85 | 209 | 0.0 | 5.0 | 0.00 | 0.00 | 0.00 | 1015.3 | |
| 20260904020445 | 85 | 202 | 0.0 | 6.0 | 0.00 | 0.00 | 0.00 | 1015.6 | |
| 20260904015903 | 85 | 199 | 0.0 | 6.0 | 0.00 | 0.00 | 0.00 | 1014.9 | |
| 20260904015424 | 85 | 45 | 0.0 | 2.0 | 0.00 | 0.00 | 0.00 | 1014.9 | |
| 20260904014903 | 86 | 201 | 0.0 | 2.0 | 0.00 | 0.00 | 0.00 | 1015.3 | |
| 20260904014402 | 86 | 193 | 0.0 | 1.0 | 0.00 | 0.00 | 0.00 | 1014.9 | |
| 20260904013903 | 85 | 202 | 0.0 | 1.0 | 0.00 | 0.00 | 0.00 | 1014.9 | |
| 20260904013403 | 86 | 248 | 0.0 | 0.0 | 0.00 | 0.00 | 0.00 | 1015.3 | |
| 20260904012903 | 86 | 202 | 0.0 | 1.0 | 0.00 | 0.00 | 0.00 | 1014.6 | |
| 20260904012403 | 86 | 202 | 0.0 | 3.0 | 0.00 | 0.00 | 0.00 | 1015.3 | |
| 20260904011903 | 86 | 202 | 0.0 | 5.0 | 0.00 | 0.00 | 0.00 | 1014.9 | |
| 20260904011403 | 86 | 201 | 0.0 | 5.0 | 0.00 | 0.00 | 0.00 | 1014.9 | |
| 20260904010903 | 86 | 211 | 0.0 | 1.0 | 0.00 | 0.00 | 0.00 | 1014.9 | |
| 20260904010403 | 86 | 203 | 0.0 | 3.0 | 0.00 | 0.00 | 0.00 | 1015.3 | |
| 20260904005903 | 86 | 202 | 0.0 | 6.0 | 0.00 | 0.00 | 0.00 | 1014.9 | |
| 20260904005403 | 87 | 202 | 0.0 | 6.0 | 0.00 | 0.00 | 0.00 | 1014.9 | |
| 20260904004903 | 87 | 180 | 0.0 | 4.0 | 0.00 | 0.00 | 0.00 | 1014.9 | |
| 20260904004403 | 87 | 203 | 0.0 | 6.0 | 0.00 | 0.00 | 0.00 | 1014.6 | |
| 20260904003903 | 87 | 180 | 0.0 | 6.0 | 0.00 | 0.00 | 0.00 | 1014.6 | |
| 20260904003403 | 87 | 203 | 0.0 | 0.0 | 0.00 | 0.00 | 0.00 | 1014.6 | |
| 20260904002903 | 87 | 248 | 0.0 | 0.0 | 0.00 | 0.00 | 0.00 | 1014.9 | |
| 20260904002425 | 87 | 203 | 0.0 | 0.0 | 0.00 | 0.00 | 0.00 | 1014.6 | |
| 20260904001903 | 88 | 338 | 0.0 | 6.0 | 0.00 | 0.00 | 0.00 | 1014.6 | |
| 20260904001403 | 88 | 360 | 0.0 | 6.0 | 0.00 | 0.00 | 0.00 | 1014.9 | |
| 20260904000903 | 88 | 327 | 2.0 | 6.0 | 0.00 | 0.00 | 0.00 | 1014.9 | |
| 20260904000403 | 89 | 224 | 0.0 | 6.0 | 0.00 | 0.00 | 0.00 | 1014.6 | |
| 20260903235903 | 90 | 269 | 0.0 | 5.0 | 0.00 | 0.00 | 0.00 | 1014.9 | |
| 20260903235425 | 90 | 281 | 0.0 | 5.0 | 0.00 | 0.00 | 0.00 | 1014.9 | |
| 20260903234903 | 90 | 259 | 0.0 | 7.0 | 0.00 | 0.00 | 0.00 | 1014.9 |